This is the latest recevied weather packets stored in our database for station/object KG4ZVW. If no packets are shown the sender has not sent any weather packets the latest 10 day(s).
| Time | Temp. | Humidity | Pressure | Rain* | Wind** | Luminosity | Snow |
|---|---|---|---|---|---|---|---|
| 1777563797 | 28.33° C | 70% | 1011.4 hPa | 0 mm | - | 853 W/m² | - |
| 1777563495 | 27.78° C | 71% | 1011.8 hPa | 0 mm | - | 853 W/m² | - |
| 1777563195 | 27.78° C | 71% | 1011.8 hPa | 0 mm | - | 816 W/m² | - |
| 1777562914 | 27.22° C | 72% | 1011.8 hPa | 0 mm | - | 633 W/m² | - |
| 1777562612 | 27.22° C | 72% | 1011.8 hPa | 0 mm | - | 478 W/m² | - |
| 1777562307 | 26.67° C | 74% | 1011.8 hPa | 0 mm | - | 923 W/m² | - |
| 1777562004 | 26.67° C | 75% | 1011.8 hPa | 0 mm | - | 886 W/m² | - |
| 1777561717 | 26.67° C | 75% | 1011.8 hPa | 0 mm | - | 325 W/m² | - |
| 1777561412 | 26.67° C | 75% | 1011.8 hPa | 0 mm | - | 330 W/m² | - |
| 1777561106 | 26.11° C | 75% | 1011.8 hPa | 0 mm | - | 274 W/m² | - |
| 1777560800 | 26.11° C | 76% | 1011.7 hPa | 0 mm | - | 241 W/m² | - |
| 1777560495 | 26.11° C | 76% | 1011.7 hPa | 0 mm | - | 237 W/m² | - |
| 1777560215 | 26.11° C | 76% | 1011.7 hPa | 0 mm | - | 195 W/m² | - |
| 1777559909 | 26.11° C | 76% | 1011.9 hPa | 0 mm | - | 176 W/m² | - |
| 1777559605 | 26.11° C | 76% | 1011.9 hPa | 0 mm | - | 188 W/m² | - |
| 1777559300 | 26.11° C | 77% | 1011.9 hPa | 0 mm | - | 199 W/m² | - |
| 1777559016 | 25.56° C | 76% | 1011.8 hPa | 0 mm | - | 216 W/m² | - |
| 1777558712 | 25.56° C | 76% | 1011.8 hPa | 0 mm | - | 174 W/m² | - |
| 1777558406 | 25.56° C | 77% | 1011.8 hPa | 0 mm | - | 181 W/m² | - |
| 1777558100 | 25.56° C | 77% | 1011.8 hPa | 0 mm | - | 204 W/m² | - |
| 1777557815 | 25.56° C | 77% | 1011.8 hPa | 0 mm | - | 192 W/m² | - |
| 1777557510 | 25.56° C | 77% | 1011.8 hPa | 0 mm | - | 200 W/m² | - |
| 1777557205 | 25.56° C | 78% | 1011.6 hPa | 0 mm | - | 199 W/m² | - |
| 1777556899 | 25° C | 79% | 1011.6 hPa | 0 mm | - | 227 W/m² | - |
| 1777556618 | 25° C | 80% | 1011.6 hPa | 0 mm | - | 350 W/m² | - |
* Rain latest hour (hover to see other rain measurements)
** Current wind speed in m/s (hover to see current wind gust speed)